This is the latest recevied weather packets stored in our database for station/object DB0GIS-11. If no packets are shown the sender has not sent any weather packets the latest 10 day(s).
| Time | Temp. | Humidity | Pressure | Rain* | Wind** | Luminosity | Snow |
|---|---|---|---|---|---|---|---|
| 1777517301 | 5.56° C | 50% | 1026.1 hPa | 0 mm | - | - | - |
| 1777516057 | 5.56° C | 50% | 1026.2 hPa | 0 mm | - | - | - |
| 1777514253 | 6.11° C | 48% | 1025.7 hPa | 0 mm | - | - | - |
| 1777513055 | 6.11° C | 49% | 1025.5 hPa | 0 mm | - | - | - |
| 1777512453 | 6.11° C | 49% | 1025.4 hPa | 0 mm | - | - | - |
| 1777511859 | 6.11° C | 49% | 1025.7 hPa | 0 mm | - | - | - |
| 1777510649 | 6.11° C | 49% | 1025.4 hPa | 0 mm | - | - | - |
| 1777507695 | 6.67° C | 47% | 1025.4 hPa | 0 mm | - | - | - |
| 1777507073 | 6.67° C | 47% | 1025.4 hPa | 0 mm | - | - | - |
| 1777504652 | 7.78° C | 46% | 1025.4 hPa | 0 mm | - | - | - |
| 1777502246 | 7.78° C | 46% | 1025 hPa | 0 mm | - | - | - |
| 1777501653 | 7.78° C | 45% | 1024.7 hPa | 0 mm | - | - | - |
| 1777499248 | 8.89° C | 43% | 1024.4 hPa | 0 mm | - | - | - |
| 1777498655 | 8.89° C | 43% | 1024.4 hPa | 0 mm | - | - | - |
| 1777495657 | 10° C | 42% | 1023.8 hPa | 0 mm | - | - | - |
| 1777495055 | 10° C | 42% | 1023.8 hPa | 0 mm | - | - | - |
| 1777493857 | 10° C | 41% | 1023.6 hPa | 0 mm | - | - | - |
| 1777492051 | 10.56° C | 41% | 1023.4 hPa | 0 mm | - | - | - |
| 1777490251 | 11.11° C | 39% | 1022.9 hPa | 0 mm | - | - | - |
| 1777489074 | 11.67° C | 38% | 1022.6 hPa | 0 mm | - | - | - |
| 1777487855 | 13.33° C | 36% | 1022.3 hPa | 0 mm | - | - | - |
| 1777486057 | 13.33° C | 36% | 1021.9 hPa | 0 mm | - | - | - |
| 1777485494 | 13.33° C | 36% | 1021.9 hPa | 0 mm | - | - | - |
| 1777484849 | 13.89° C | 36% | 1021.8 hPa | 0 mm | - | - | - |
| 1777483684 | 13.89° C | 36% | 1021.8 hPa | 0 mm | - | - | - |
* Rain latest hour (hover to see other rain measurements)
** Current wind speed in m/s (hover to see current wind gust speed)